Location: Waco, TX
(31.5481°N, 97.1672°W)
Time: 03:55:50
(UTC-06:00)

ISS - Visible Passes

Search period start: 20 February 2018 00:00
Search period end: 02 March 2018 00:00
Orbit: 403 x 407 km, 51.6° (Epoch: 20 February)

Date Brightness Start Highest point End Pass type
(mag) Time Alt. Az. Time Alt. Az. Time Alt. Az.
23 Feb -1.5 06:29:39 10° S 06:32:28 27° SE 06:35:18 10° ENE visible
24 Feb -0.7 05:38:55 10° SSE 05:40:24 13° SE 05:41:54 10° E visible
25 Feb -3.8 06:21:02 10° SW 06:24:18 89° SSE 06:27:34 10° NE visible
26 Feb -2.4 05:30:38 23° S 05:32:06 36° SE 05:35:09 10° ENE visible
27 Feb -0.6 04:41:19 13° E 04:41:19 13° E 04:42:08 10° E visible
27 Feb -2.9 06:14:01 15° W 06:16:14 30° NW 06:19:11 10° NNE visible
28 Feb -3.4 05:24:27 53° NNE 05:24:27 53° NNE 05:27:09 10° NE visible
01 Mar -0.3 04:34:42 11° NE 04:34:42 11° NE 04:34:48 10° NE visible
01 Mar -1.7 06:07:22 13° NW 06:08:18 14° NNW 06:10:06 10° N visible
